TimeAKST,TemperatureF,Dew PointF,Humidity,Sea Level PressureIn,VisibilityMPH,Wind Direction,Wind SpeedMPH,Gust SpeedMPH,PrecipitationIn,Events,Conditions,WindDirDegrees,DateUTC
12:04 AM,30.2,28.4,93,30.08,3.0,SW,6.9,-,N/A,,Mostly Cloudy,220,2013-01-12 09:04:00
12:53 AM,33.1,30.9,92,30.08,10.0,WSW,6.9,-,N/A,,Scattered Clouds,240,2013-01-12 09:53:00
1:36 AM,32.0,30.2,93,30.06,9.0,Calm,Calm,-,N/A,,Mostly Cloudy,0,2013-01-12 10:36:00
1:53 AM,32.0,30.0,92,30.08,6.0,Calm,Calm,-,N/A,,Overcast,0,2013-01-12 10:53:00
2:16 AM,32.0,30.2,93,30.08,8.0,SW,4.6,-,N/A,,Partly Cloudy,230,2013-01-12 11:16:00
3:53 AM,34.0,32.0,92,30.04,10.0,East,6.9,-,N/A,,Overcast,90,2013-01-12 12:53:00
4:14 AM,33.8,32.0,93,30.03,10.0,North,5.8,-,N/A,,Overcast,350,2013-01-12 13:14:00
4:53 AM,34.0,30.9,89,30.00,10.0,ENE,6.9,-,N/A,,Overcast,60,2013-01-12 13:53:00
5:53 AM,42.1,30.9,65,29.99,10.0,ESE,11.5,-,N/A,,Overcast,110,2013-01-12 14:53:00
6:53 AM,42.1,32.0,67,29.95,10.0,SSE,8.1,-,N/A,,Overcast,150,2013-01-12 15:53:00
7:53 AM,42.1,32.0,67,29.94,10.0,Calm,Calm,-,0.00,,Overcast,0,2013-01-12 16:53:00
8:53 AM,41.0,33.1,73,29.94,10.0,WNW,5.8,-,0.01,,Overcast,290,2013-01-12 17:53:00
9:53 AM,39.0,34.0,82,29.95,10.0,NW,5.8,-,0.03,Rain,Light Rain,320,2013-01-12 18:53:00
10:53 AM,39.9,35.1,83,29.94,10.0,NNW,3.5,-,0.05,Rain,Light Rain,330,2013-01-12 19:53:00
11:53 AM,39.0,35.1,86,29.95,10.0,WNW,5.8,-,0.07,Rain,Light Rain,300,2013-01-12 20:53:00
12:53 PM,39.9,35.1,83,29.94,7.0,WNW,5.8,-,0.04,Rain,Light Rain,300,2013-01-12 21:53:00
1:53 PM,39.0,35.1,86,29.90,10.0,NW,3.5,-,0.03,Rain,Light Rain,310,2013-01-12 22:53:00
2:53 PM,39.0,35.1,86,29.88,7.0,West,6.9,-,0.01,Rain,Light Rain,280,2013-01-12 23:53:00
4:53 PM,37.0,35.1,93,29.83,8.0,Calm,Calm,-,0.00,Rain,Light Rain,0,2013-01-13 01:53:00
5:53 PM,41.0,35.1,79,29.85,10.0,Variable,3.5,18.4,0.01,Rain,Light Rain,0,2013-01-13 02:53:00
6:53 PM,44.1,32.0,63,29.84,10.0,SE,16.1,27.6,0.00,Rain,Light Rain,140,2013-01-13 03:53:00
7:00 PM,42.8,32.0,66,29.84,10.0,SE,11.5,26.5,0.00,Rain,Light Rain,140,2013-01-13 04:00:00
7:53 PM,41.0,33.1,73,29.82,10.0,Variable,5.8,-,0.00,,Overcast,0,2013-01-13 04:53:00
8:53 PM,44.1,33.1,65,29.82,10.0,East,10.4,18.4,0.00,Rain,Light Rain,90,2013-01-13 05:53:00
9:53 PM,45.0,33.1,63,29.80,10.0,ESE,13.8,23.0,0.00,,Overcast,120,2013-01-13 06:53:00
10:53 PM,46.9,34.0,61,29.78,10.0,SE,15.0,25.3,0.00,Rain,Light Rain,140,2013-01-13 07:53:00
11:53 PM,46.0,34.0,63,29.78,10.0,SSE,17.3,28.8,0.05,Rain,Light Rain,150,2013-01-13 08:53:00